WB5LJZ-9 Weather Reports


Display with metric or nautical units.
time (UTC)temp
F
wind
direction
speed
MPH
gust
MPH
rain 1hr
in
rain 24hr
in
rain mn
in
humidity
%
barometer
mb
20210613052003 78 94 0.0 0.0 0.00 0.00 0.00 74 1014.4
20210613051906 78 94 0.0 0.0 0.00 0.00 0.00 74 1014.4
20210613050708 78 94 0.0 0.0 0.00 0.00 0.00 73 1014.4
20210613045503 78 95 0.0 0.0 0.00 0.00 0.00 72 1014.4
20210613045501 78 95 0.0 0.0 0.00 0.00 0.00 72 1014.4
20210613043108 78 95 0.0 0.0 0.00 0.00 0.00 72 1014.4
20210613041904 78 96 0.0 0.0 0.00 0.00 0.00 70 1014.4
20210613040706 79 96 0.0 0.0 0.00 0.00 0.00 69 1014.4
20210613035509 79 97 0.0 0.0 0.00 0.00 0.00 68 1014.4
20210613034308 79 97 0.0 0.0 0.00 0.00 0.00 68 1014.4
20210613034306 79 97 0.0 0.0 0.00 0.00 0.00 68 1014.4
20210613033109 79 97 0.0 0.0 0.00 0.00 0.00 67 1014.4
20210613031914 78 97 0.0 0.0 0.00 0.00 0.00 69 1014.4
20210613031912 78 97 0.0 0.0 0.00 0.00 0.00 69 1014.4
20210613030712 78 96 0.0 0.0 0.00 0.00 0.00 69 1013.4
20210613025515 78 96 0.0 0.0 0.00 0.00 0.00 68 1013.4
20210613024318 78 97 0.0 0.0 0.00 0.00 0.00 67 1013.4
20210613023115 78 97 0.0 0.0 0.00 0.00 0.00 62 1013.4
20210613023113 78 97 0.0 0.0 0.00 0.00 0.00 62 1013.4
20210613021918 79 97 0.0 0.0 0.00 0.00 0.00 59 1013.4
20210613021916 79 97 0.0 0.0 0.00 0.00 0.00 59 1013.4
20210613020720 80 98 0.0 0.0 0.00 0.00 0.00 57 1012.4
20210613015515 82 99 0.0 0.0 0.00 0.00 0.00 54 1012.4
20210613014320 83 99 0.0 0.0 0.00 0.00 0.00 51 1012.4
20210613014318 83 99 0.0 0.0 0.00 0.00 0.00 51 1012.4
20210613013124 84 99 0.0 0.0 0.00 0.00 0.00 50 1012.4
20210613013122 84 99 0.0 0.0 0.00 0.00 0.00 50 1012.4
20210613011912 85 99 0.0 0.0 0.00 0.00 0.00 47 1012.4
20210613010714 86 99 0.0 0.0 0.00 0.00 0.00 45 1012.4
20210613005517 87 99 0.0 0.0 0.00 0.00 0.00 42 1012.4
20210613004318 88 99 0.0 0.0 0.00 0.00 0.00 41 1012.4
20210613004315 88 99 0.0 0.0 0.00 0.00 0.00 41 1012.4
20210613003118 89 99 0.0 0.0 0.00 0.00 0.00 40 1012.4
20210613001923 89 99 0.0 0.0 0.00 0.00 0.00 38 1012.4
20210613001921 89 99 0.0 0.0 0.00 0.00 0.00 38 1012.4
20210613000717 89 99 0.0 0.0 0.00 0.00 0.00 37 1012.4
20210613000715 89 99 0.0 0.0 0.00 0.00 0.00 37 1012.4
20210612235518 89 99 0.0 0.0 0.00 0.00 0.00 41 1012.4
20210612235516 89 99 0.0 0.0 0.00 0.00 0.00 41 1012.4
20210612234319 91 99 0.0 0.0 0.00 0.00 0.00 38 1012.4
20210612233119 90 99 0.0 0.0 0.00 0.00 0.00 37 1012.4
20210612233117 90 99 0.0 0.0 0.00 0.00 0.00 37 1012.4
20210612231921 92 99 0.0 0.0 0.00 0.00 0.00 36 1012.4
20210612231919 92 99 0.0 0.0 0.00 0.00 0.00 36 1012.4
20210612230720 92 98 0.0 0.0 0.00 0.00 0.00 32 1012.4
20210612230718 92 98 0.0 0.0 0.00 0.00 0.00 32 1012.4
20210612225518 91 98 0.0 0.0 0.00 0.00 0.00 34 1012.4
20210612225515 91 98 0.0 0.0 0.00 0.00 0.00 34 1012.4
20210612224318 93 98 0.0 0.0 0.00 0.00 0.00 32 1012.4
20210612224315 93 98 0.0 0.0 0.00 0.00 0.00 32 1012.4
20210612223118 94 98 0.0 0.0 0.00 0.00 0.00 34 1012.4
20210612221918 94 98 0.0 0.0 0.00 0.00 0.00 33 1012.4
20210612221916 94 98 0.0 0.0 0.00 0.00 0.00 33 1012.4
20210612215524 92 97 0.0 0.0 0.00 0.00 0.00 30 1012.4
20210612215522 92 97 0.0 0.0 0.00 0.00 0.00 30 1012.4
20210612214323 94 97 0.0 0.0 0.00 0.00 0.00 32 1012.4
20210612214320 94 97 0.0 0.0 0.00 0.00 0.00 32 1012.4
20210612213125 94 97 0.0 0.0 0.00 0.00 0.00 33 1012.4
20210612213123 94 97 0.0 0.0 0.00 0.00 0.00 33 1012.4
20210612211927 94 97 0.0 0.0 0.00 0.00 0.00 33 1012.4
20210612211925 94 97 0.0 0.0 0.00 0.00 0.00 33 1012.4
20210612210725 94 97 0.0 0.0 0.00 0.00 0.00 31 1012.4
20210612210723 94 97 0.0 0.0 0.00 0.00 0.00 31 1012.4
20210612205528 93 97 0.0 0.0 0.00 0.00 0.00 34 1012.4
20210612205526 93 97 0.0 0.0 0.00 0.00 0.00 34 1012.4
20210612204329 95 96 0.0 0.0 0.00 0.00 0.00 33 1013.4
20210612203127 94 96 0.0 0.0 0.00 0.00 0.00 32 1013.4
20210612203124 94 96 0.0 0.0 0.00 0.00 0.00 32 1013.4
20210612201930 92 96 0.0 0.0 0.00 0.00 0.00 36 1013.4
20210612201927 92 96 0.0 0.0 0.00 0.00 0.00 36 1013.4
20210612200730 94 96 0.0 0.0 0.00 0.00 0.00 36 1013.4
20210612195528 95 96 0.0 0.0 0.00 0.00 0.00 33 1013.4
20210612194333 95 96 0.0 0.0 0.00 0.00 0.00 31 1012.4
20210612194331 95 96 0.0 0.0 0.00 0.00 0.00 31 1012.4
20210612193136 94 95 0.0 0.0 0.00 0.00 0.00 37 1013.4
20210612193134 94 95 0.0 0.0 0.00 0.00 0.00 37 1013.4
20210612191932 92 95 0.0 0.0 0.00 0.00 0.00 36 1013.4
20210612191930 92 95 0.0 0.0 0.00 0.00 0.00 36 1013.4
20210612190733 92 95 0.0 0.0 0.00 0.00 0.00 35 1013.4
20210612185535 95 95 0.0 0.0 0.00 0.00 0.00 33 1013.4
20210612184330 95 95 0.0 0.0 0.00 0.00 0.00 32 1014.4
20210612183135 93 94 0.0 0.0 0.00 0.00 0.00 32 1014.4
20210612183133 93 94 0.0 0.0 0.00 0.00 0.00 32 1014.4
20210612181936 92 94 0.0 0.0 0.00 0.00 0.00 37 1014.4
20210612180735 92 94 0.0 0.0 0.00 0.00 0.00 38 1014.4
20210612175536 92 94 0.0 0.0 0.00 0.00 0.00 37 1013.4
20210612175534 92 94 0.0 0.0 0.00 0.00 0.00 37 1013.4
20210612174333 91 94 0.0 0.0 0.00 0.00 0.00 39 1014.4
20210612173132 92 94 0.0 0.0 0.00 0.00 0.00 37 1014.4
20210612173130 92 94 0.0 0.0 0.00 0.00 0.00 37 1014.4
20210612171935 90 94 0.0 0.0 0.00 0.00 0.00 37 1014.4
20210612171933 90 94 0.0 0.0 0.00 0.00 0.00 37 1014.4
20210612170735 91 94 0.0 0.0 0.00 0.00 0.00 39 1014.4
20210612165533 90 94 0.0 0.0 0.00 0.00 0.00 39 1014.4
20210612164339 90 94 0.0 0.0 0.00 0.00 0.00 40 1014.4
20210612164336 90 94 0.0 0.0 0.00 0.00 0.00 40 1014.4
20210612163142 89 94 0.0 0.0 0.00 0.00 0.00 43 1014.4
20210612163139 89 94 0.0 0.0 0.00 0.00 0.00 43 1014.4
20210612161938 88 93 0.0 0.0 0.00 0.00 0.00 42 1014.4
20210612161935 88 93 0.0 0.0 0.00 0.00 0.00 42 1014.4
20210612160741 88 93 0.0 0.0 0.00 0.00 0.00 43 1014.4
20210612160738 88 93 0.0 0.0 0.00 0.00 0.00 43 1014.4
20210612155534 87 93 0.0 0.0 0.00 0.00 0.00 44 1014.4
20210612155532 87 93 0.0 0.0 0.00 0.00 0.00 44 1014.4
20210612154325 87 93 0.0 0.0 0.00 0.00 0.00 46 1014.4
20210612154323 87 93 0.0 0.0 0.00 0.00 0.00 46 1014.4
20210612153127 85 93 0.0 0.0 0.00 0.00 0.00 48 1014.4
20210612153125 85 93 0.0 0.0 0.00 0.00 0.00 48 1014.4
20210612151927 85 93 0.0 0.0 0.00 0.00 0.00 50 1014.4
20210612150725 84 93 0.0 0.0 0.00 0.00 0.00 52 1014.4
20210612150723 84 93 0.0 0.0 0.00 0.00 0.00 52 1014.4
20210612145529 83 93 0.0 0.0 0.00 0.00 0.00 54 1014.4
20210612145526 83 93 0.0 0.0 0.00 0.00 0.00 54 1014.4
20210612144328 83 93 0.0 0.0 0.00 0.00 0.00 55 1014.4
20210612143126 83 93 0.0 0.0 0.00 0.00 0.00 56 1014.4
20210612141932 84 93 0.0 0.0 0.00 0.00 0.00 57 1014.4
20210612141929 84 93 0.0 0.0 0.00 0.00 0.00 57 1014.4
20210612140732 82 93 0.0 0.0 0.00 0.00 0.00 61 1014.4
20210612135533 81 93 0.0 0.0 0.00 0.00 0.00 66 1014.4
20210612135529 81 93 0.0 0.0 0.00 0.00 0.00 66 1014.4
20210612134335 81 92 0.0 0.0 0.00 0.00 0.00 64 1013.4
20210612134332 81 92 0.0 0.0 0.00 0.00 0.00 64 1013.4
20210612133131 79 91 0.0 0.0 0.00 0.00 0.00 69 1013.4
20210612131930 79 91 0.0 0.0 0.00 0.00 0.00 72 1013.4
20210612130736 78 92 0.0 0.0 0.00 0.00 0.00 78 1013.4
20210612130733 78 92 0.0 0.0 0.00 0.00 0.00 78 1013.4
20210612124319 76 88 0.0 0.0 0.00 0.00 0.00 86 1012.4
20210612121909 75 85 0.0 0.0 0.00 0.00 0.00 87 1012.4
20210612120656 75 85 0.0 0.0 0.00 0.00 0.00 88 1012.4
20210612115459 75 85 0.0 0.0 0.00 0.00 0.00 88 1012.4
20210612114255 75 85 0.0 0.0 0.00 0.00 0.00 89 1012.4
20210612111832 75 86 0.0 0.0 0.00 0.00 0.00 91 1012.4
20210612111830 75 86 0.0 0.0 0.00 0.00 0.00 91 1012.4
20210612110634 75 86 0.0 0.0 0.00 0.00 0.00 92 1012.4
20210612110631 75 86 0.0 0.0 0.00 0.00 0.00 92 1012.4
20210612105416 75 86 0.0 0.0 0.00 0.00 0.00 92 1012.4
20210612105413 75 86 0.0 0.0 0.00 0.00 0.00 92 1012.4
20210612102953 75 87 0.0 0.0 0.00 0.00 0.00 92 1011.4
20210612101743 75 87 0.0 0.0 0.00 0.00 0.00 92 1011.4
20210612100528 75 87 0.0 0.0 0.00 0.00 0.00 92 1011.4
20210612100525 75 87 0.0 0.0 0.00 0.00 0.00 92 1011.4
20210612095321 75 87 0.0 0.0 0.00 0.00 0.00 92 1011.4
20210612094112 75 87 0.0 0.0 0.00 0.00 0.00 92 1011.4
20210612091644 75 88 0.0 0.0 0.00 0.00 0.00 91 1011.4
20210612091641 75 88 0.0 0.0 0.00 0.00 0.00 91 1011.4
20210612090435 75 88 0.0 0.0 0.00 0.00 0.00 91 1011.4
20210612090432 75 88 0.0 0.0 0.00 0.00 0.00 91 1011.4
20210612085238 75 88 0.0 0.0 0.00 0.00 0.00 91 1011.4
20210612085235 75 88 0.0 0.0 0.00 0.00 0.00 91 1011.4
20210612084041 76 88 0.0 0.0 0.00 0.00 0.00 91 1012.4
20210612084038 76 88 0.0 0.0 0.00 0.00 0.00 91 1012.4
20210612082832 76 89 0.0 0.0 0.00 0.00 0.00 91 1012.4
20210612082829 76 89 0.0 0.0 0.00 0.00 0.00 91 1012.4
20210612080424 75 89 0.0 0.0 0.00 0.00 0.00 90 1012.4
20210612075216 75 90 0.0 0.0 0.00 0.00 0.00 90 1012.4
20210612075213 75 90 0.0 0.0 0.00 0.00 0.00 90 1012.4
20210612074008 75 90 0.0 0.0 0.00 0.00 0.00 89 1012.4
20210612071608 76 91 0.0 0.0 0.00 0.00 0.00 88 1012.4
20210612071605 76 91 0.0 0.0 0.00 0.00 0.00 88 1012.4
20210612070408 76 91 0.0 0.0 0.00 0.00 0.00 87 1012.4
20210612065214 76 91 0.0 0.0 0.00 0.00 0.00 86 1012.4
20210612065211 76 91 0.0 0.0 0.00 0.00 0.00 86 1012.4
20210612064003 76 91 0.0 0.0 0.00 0.00 0.00 85 1012.4
20210612062806 77 91 0.0 0.0 0.00 0.00 0.00 85 1012.4
20210612061607 77 91 0.0 0.0 0.00 0.00 0.00 84 1012.4
20210612060403 77 92 0.0 0.0 0.00 0.00 0.00 82 1012.4
20210612055207 78 92 0.0 0.0 0.00 0.00 0.00 82 1012.4
20210612055204 78 92 0.0 0.0 0.00 0.00 0.00 82 1012.4
20210612054009 78 92 0.0 0.0 0.00 0.00 0.00 81 1012.4
20210612054006 78 92 0.0 0.0 0.00 0.00 0.00 81 1012.4
20210612052805 78 93 0.0 0.0 0.00 0.00 0.00 82 1012.4